Time,TemperatureF,DewpointF,PressureIn,WindDirection,WindDirectionDegrees,WindSpeedMPH,WindSpeedGustMPH,Humidity,HourlyPrecipIn,Conditions,Clouds,dailyrainin,SoftwareType,DateUTC
2013-01-19 00:03:00,43.9,30.5,30.03,South,180,7.8,11.4,59,0.00,,,0.00,WUHU216HW,2013-01-19 06:03:00,
2013-01-19 00:08:00,43.7,30.8,30.02,SW,225,10.1,11.4,60,0.00,,,0.00,WUHU216HW,2013-01-19 06:08:00,
2013-01-19 00:13:00,43.7,30.8,30.02,SSW,203,7.8,11.6,60,0.00,,,0.00,WUHU216HW,2013-01-19 06:13:00,
2013-01-19 00:18:00,43.6,30.6,30.02,SW,225,9.4,11.6,60,0.00,,,0.00,WUHU216HW,2013-01-19 06:18:00,
2013-01-19 00:23:00,43.6,30.6,30.02,SSW,203,6.3,10.7,60,0.00,,,0.00,WUHU216HW,2013-01-19 06:23:00,
2013-01-19 00:28:00,43.4,30.8,30.02,SW,225,8.5,11.6,61,0.00,,,0.00,WUHU216HW,2013-01-19 06:28:00,
2013-01-19 00:33:00,43.4,30.4,30.02,SSW,203,8.3,11.6,60,0.00,,,0.00,WUHU216HW,2013-01-19 06:33:00,
2013-01-19 00:38:00,43.6,30.6,30.02,SSW,203,11.6,12.8,60,0.00,,,0.00,WUHU216HW,2013-01-19 06:38:00,
2013-01-19 00:43:00,43.4,30.4,30.02,South,180,11.2,12.8,60,0.00,,,0.00,WUHU216HW,2013-01-19 06:43:00,
2013-01-19 00:48:00,43.2,30.6,30.02,SW,225,13.0,13.0,61,0.00,,,0.00,WUHU216HW,2013-01-19 06:48:00,
2013-01-19 00:53:00,43.0,30.4,30.02,South,180,12.8,13.0,61,0.00,,,0.00,WUHU216HW,2013-01-19 06:53:00,
2013-01-19 00:58:00,43.0,30.4,30.02,SSW,203,13.0,13.0,61,0.00,,,0.00,WUHU216HW,2013-01-19 06:58:00,
2013-01-19 01:03:00,42.8,30.2,30.02,SSW,203,6.9,13.0,61,0.00,,,0.00,WUHU216HW,2013-01-19 07:03:00,
2013-01-19 01:08:00,42.8,30.2,30.02,SW,225,11.4,11.4,61,0.00,,,0.00,WUHU216HW,2013-01-19 07:08:00,
2013-01-19 01:13:00,42.8,30.7,30.02,SW,225,9.8,12.3,62,0.00,,,0.00,WUHU216HW,2013-01-19 07:13:00,
2013-01-19 01:18:00,42.7,30.5,30.02,SW,225,8.1,12.3,62,0.00,,,0.00,WUHU216HW,2013-01-19 07:18:00,
2013-01-19 01:23:00,42.5,30.3,30.02,WSW,248,6.3,11.6,62,0.00,,,0.00,WUHU216HW,2013-01-19 07:23:00,
2013-01-19 01:28:00,42.5,30.7,30.02,SW,225,6.0,11.6,63,0.00,,,0.00,WUHU216HW,2013-01-19 07:28:00,
2013-01-19 01:33:00,42.1,30.4,30.02,SSW,203,6.3,8.1,63,0.00,,,0.00,WUHU216HW,2013-01-19 07:33:00,
2013-01-19 01:38:00,42.1,30.4,30.03,WSW,248,9.8,11.2,63,0.00,,,0.00,WUHU216HW,2013-01-19 07:38:00,
2013-01-19 01:43:00,42.1,30.4,30.02,SW,225,7.6,11.2,63,0.00,,,0.00,WUHU216HW,2013-01-19 07:43:00,
2013-01-19 01:48:00,42.1,30.4,30.02,SW,225,6.3,10.5,63,0.00,,,0.00,WUHU216HW,2013-01-19 07:48:00,
2013-01-19 01:53:00,41.8,30.1,30.02,SSW,203,9.8,10.5,63,0.00,,,0.00,WUHU216HW,2013-01-19 07:53:00,
2013-01-19 01:58:00,41.9,30.3,30.02,SSW,203,7.4,11.6,63,0.00,,,0.00,WUHU216HW,2013-01-19 07:58:00,
2013-01-19 02:03:00,41.9,30.3,30.02,South,180,7.6,11.6,63,0.00,,,0.00,WUHU216HW,2013-01-19 08:03:00,
2013-01-19 02:08:00,41.8,30.1,30.02,SW,225,7.6,11.2,63,0.00,,,0.00,WUHU216HW,2013-01-19 08:08:00,
2013-01-19 02:13:00,41.8,30.4,30.02,SSW,203,6.7,11.2,64,0.00,,,0.00,WUHU216HW,2013-01-19 08:13:00,
2013-01-19 02:18:00,41.6,30.2,30.02,SSW,203,9.6,9.8,64,0.00,,,0.00,WUHU216HW,2013-01-19 08:18:00,
2013-01-19 02:23:00,41.6,30.2,30.02,SW,225,8.5,9.6,64,0.00,,,0.00,WUHU216HW,2013-01-19 08:23:00,
2013-01-19 02:28:00,41.4,30.2,30.01,SSW,203,9.4,9.6,64,0.00,,,0.00,WUHU216HW,2013-01-19 08:28:00,
2013-01-19 02:33:00,41.4,30.2,30.02,SSW,203,5.4,10.7,64,0.00,,,0.00,WUHU216HW,2013-01-19 08:33:00,
2013-01-19 02:38:00,41.4,30.5,30.02,SSW,203,7.6,10.7,65,0.00,,,0.00,WUHU216HW,2013-01-19 08:38:00,
2013-01-19 02:43:00,41.4,30.5,30.02,SSW,203,6.7,9.4,65,0.00,,,0.00,WUHU216HW,2013-01-19 08:43:00,
2013-01-19 02:48:00,41.4,30.5,30.01,SW,225,5.8,9.4,65,0.00,,,0.00,WUHU216HW,2013-01-19 08:48:00,
2013-01-19 02:53:00,41.4,30.5,30.01,SSW,203,6.0,9.2,65,0.00,,,0.00,WUHU216HW,2013-01-19 08:53:00,
2013-01-19 02:58:00,41.2,30.3,30.01,SW,225,7.4,8.9,65,0.00,,,0.00,WUHU216HW,2013-01-19 08:58:00,
2013-01-19 03:03:00,41.2,30.3,30.01,SW,225,6.9,11.4,65,0.00,,,0.00,WUHU216HW,2013-01-19 09:03:00,
2013-01-19 03:08:00,41.2,30.3,30.01,SSW,203,8.7,11.4,65,0.00,,,0.00,WUHU216HW,2013-01-19 09:08:00,
2013-01-19 03:13:00,41.2,30.3,30.00,SW,225,3.8,11.2,65,0.00,,,0.00,WUHU216HW,2013-01-19 09:13:00,
2013-01-19 03:18:00,41.0,30.5,30.00,SSW,203,6.7,9.2,66,0.00,,,0.00,WUHU216HW,2013-01-19 09:18:00,
2013-01-19 03:23:00,41.0,30.5,30.00,SSW,203,9.6,9.6,66,0.00,,,0.00,WUHU216HW,2013-01-19 09:23:00,
2013-01-19 03:28:00,41.0,30.5,30.00,WSW,248,9.8,9.8,66,0.00,,,0.00,WUHU216HW,2013-01-19 09:28:00,
2013-01-19 03:33:00,41.0,30.2,30.00,SW,225,4.0,9.8,65,0.00,,,0.00,WUHU216HW,2013-01-19 09:33:00,
2013-01-19 03:38:00,41.0,30.5,30.00,SSW,203,6.7,9.8,66,0.00,,,0.00,WUHU216HW,2013-01-19 09:38:00,
2013-01-19 03:43:00,41.0,30.5,30.00,SW,225,6.5,9.8,66,0.00,,,0.00,WUHU216HW,2013-01-19 09:43:00,
2013-01-19 03:48:00,40.9,30.3,30.00,SW,225,9.6,9.8,66,0.00,,,0.00,WUHU216HW,2013-01-19 09:48:00,
2013-01-19 03:53:00,40.7,30.2,30.00,SW,225,5.1,9.6,66,0.00,,,0.00,WUHU216HW,2013-01-19 09:53:00,
2013-01-19 03:58:00,40.5,30.3,30.00,SW,225,6.5,9.6,67,0.00,,,0.00,WUHU216HW,2013-01-19 09:58:00,
2013-01-19 04:03:00,40.3,30.2,29.99,WSW,248,4.3,8.5,67,0.00,,,0.00,WUHU216HW,2013-01-19 10:03:00,
2013-01-19 04:08:00,40.0,29.8,29.99,SSW,203,4.0,6.5,67,0.00,,,0.00,WUHU216HW,2013-01-19 10:08:00,
2013-01-19 04:13:00,40.0,29.8,29.99,South,180,5.4,6.0,67,0.00,,,0.00,WUHU216HW,2013-01-19 10:13:00,
2013-01-19 04:18:00,40.0,29.8,29.98,SSW,203,4.3,7.4,67,0.00,,,0.00,WUHU216HW,2013-01-19 10:18:00,
2013-01-19 04:23:00,40.0,29.8,29.98,WSW,248,4.9,8.5,67,0.00,,,0.00,WUHU216HW,2013-01-19 10:23:00,
2013-01-19 04:28:00,40.1,30.0,29.98,South,180,3.8,8.5,67,0.00,,,0.00,WUHU216HW,2013-01-19 10:28:00,
2013-01-19 04:33:00,40.1,30.0,29.98,SSW,203,4.7,9.2,67,0.00,,,0.00,WUHU216HW,2013-01-19 10:33:00,
2013-01-19 04:38:00,40.0,29.8,29.98,South,180,4.9,9.2,67,0.00,,,0.00,WUHU216HW,2013-01-19 10:38:00,
2013-01-19 04:43:00,40.0,29.8,29.97,SSW,203,6.5,8.9,67,0.00,,,0.00,WUHU216HW,2013-01-19 10:43:00,
2013-01-19 04:48:00,40.0,29.8,29.97,South,180,7.4,8.3,67,0.00,,,0.00,WUHU216HW,2013-01-19 10:48:00,
2013-01-19 04:53:00,40.1,30.0,29.98,SSW,203,7.2,10.5,67,0.00,,,0.00,WUHU216HW,2013-01-19 10:53:00,
2013-01-19 04:58:00,40.0,29.8,29.98,SSW,203,7.4,10.5,67,0.00,,,0.00,WUHU216HW,2013-01-19 10:58:00,
2013-01-19 05:03:00,40.0,29.8,29.98,SW,225,4.5,8.5,67,0.00,,,0.00,WUHU216HW,2013-01-19 11:03:00,
2013-01-19 05:08:00,39.8,30.1,29.98,SSW,203,4.7,7.4,68,0.00,,,0.00,WUHU216HW,2013-01-19 11:08:00,
2013-01-19 05:13:00,39.8,30.1,29.98,SSW,203,6.5,6.9,68,0.00,,,0.00,WUHU216HW,2013-01-19 11:13:00,
2013-01-19 05:20:00,39.8,30.1,29.98,SSW,203,3.8,6.9,68,0.00,,,0.00,WUHU216HW,2013-01-19 11:20:00,
2013-01-19 05:32:00,39.2,29.9,29.98,SSW,203,5.6,8.1,69,0.00,,,0.00,WUHU216HW,2013-01-19 11:32:00,
2013-01-19 05:38:00,39.1,30.1,29.98,WSW,248,8.5,8.5,70,0.00,,,0.00,WUHU216HW,2013-01-19 11:38:00,
2013-01-19 05:44:00,38.9,29.9,29.98,SW,225,6.9,8.5,70,0.00,,,0.00,WUHU216HW,2013-01-19 11:44:00,
2013-01-19 05:50:00,38.9,29.9,29.97,SW,225,5.4,10.5,70,0.00,,,0.00,WUHU216HW,2013-01-19 11:50:00,
2013-01-19 05:56:00,38.9,30.2,29.98,SW,225,6.0,7.4,71,0.00,,,0.00,WUHU216HW,2013-01-19 11:56:00,
2013-01-19 06:02:00,38.9,29.9,29.99,SSE,158,2.7,7.6,70,0.00,,,0.00,WUHU216HW,2013-01-19 12:02:00,
2013-01-19 06:08:00,38.5,30.0,29.99,SSW,203,6.7,8.9,71,0.00,,,0.00,WUHU216HW,2013-01-19 12:08:00,
2013-01-19 06:20:00,38.3,29.8,29.99,SW,225,3.8,10.5,71,0.00,,,0.00,WUHU216HW,2013-01-19 12:20:00,
2013-01-19 06:26:00,38.2,30.0,29.99,SSW,203,5.4,9.2,72,0.00,,,0.00,WUHU216HW,2013-01-19 12:26:00,
2013-01-19 06:32:00,38.0,29.8,29.99,SW,225,7.6,8.9,72,0.00,,,0.00,WUHU216HW,2013-01-19 12:32:00,
2013-01-19 06:38:00,37.8,30.0,29.99,SSW,203,11.0,11.0,73,0.00,,,0.00,WUHU216HW,2013-01-19 12:38:00,
2013-01-19 06:48:00,38.2,30.2,29.98,SSW,203,13.0,13.0,73,0.00,,,0.00,WUHU216HW,2013-01-19 12:48:00,
2013-01-19 06:53:00,38.0,30.1,29.98,SW,225,7.6,13.0,73,0.00,,,0.00,WUHU216HW,2013-01-19 12:53:00,
2013-01-19 06:58:00,38.0,30.1,29.98,South,180,3.6,10.5,73,0.00,,,0.00,WUHU216HW,2013-01-19 12:58:00,
2013-01-19 07:03:00,38.0,30.1,29.99,SSW,203,6.3,10.5,73,0.00,,,0.00,WUHU216HW,2013-01-19 13:03:00,
2013-01-19 07:08:00,37.8,30.0,29.99,WSW,248,4.7,6.3,73,0.00,,,0.00,WUHU216HW,2013-01-19 13:08:00,
2013-01-19 07:13:00,37.8,30.0,29.99,South,180,6.0,8.5,73,0.00,,,0.00,WUHU216HW,2013-01-19 13:13:00,
2013-01-19 07:18:00,37.8,30.0,29.99,SW,225,6.3,8.5,73,0.00,,,0.00,WUHU216HW,2013-01-19 13:18:00,
2013-01-19 07:23:00,37.6,30.1,29.99,SW,225,3.4,6.5,74,0.00,,,0.00,WUHU216HW,2013-01-19 13:23:00,
2013-01-19 07:28:00,37.4,29.9,29.99,WSW,248,4.0,7.2,74,0.00,,,0.00,WUHU216HW,2013-01-19 13:28:00,
2013-01-19 07:33:00,37.4,29.9,29.99,SW,225,7.6,8.9,74,0.00,,,0.00,WUHU216HW,2013-01-19 13:33:00,
2013-01-19 07:38:00,37.3,29.7,29.99,SSW,203,4.9,8.9,74,0.00,,,0.00,WUHU216HW,2013-01-19 13:38:00,
2013-01-19 07:43:00,37.3,30.1,29.99,SW,225,6.0,7.4,75,0.00,,,0.00,WUHU216HW,2013-01-19 13:43:00,
2013-01-19 07:48:00,37.3,29.7,30.00,SSW,203,3.4,7.4,74,0.00,,,0.00,WUHU216HW,2013-01-19 13:48:00,
2013-01-19 07:53:00,37.3,30.1,29.99,SW,225,5.4,7.4,75,0.00,,,0.00,WUHU216HW,2013-01-19 13:53:00,
2013-01-19 07:58:00,37.6,30.1,30.00,SSW,203,4.5,8.7,74,0.00,,,0.00,WUHU216HW,2013-01-19 13:58:00,
2013-01-19 08:03:00,38.0,30.1,29.99,SW,225,6.3,8.7,73,0.00,,,0.00,WUHU216HW,2013-01-19 14:03:00,
2013-01-19 08:08:00,38.5,30.2,29.99,SSW,203,6.0,7.8,72,0.00,,,0.00,WUHU216HW,2013-01-19 14:08:00,
2013-01-19 08:13:00,38.9,30.6,29.99,SW,225,7.8,7.8,72,0.00,,,0.00,WUHU216HW,2013-01-19 14:13:00,
2013-01-19 08:18:00,39.1,30.8,30.00,SSW,203,9.4,9.4,72,0.00,,,0.00,WUHU216HW,2013-01-19 14:18:00,
2013-01-19 08:23:00,39.2,30.6,30.00,SSW,203,3.4,9.4,71,0.00,,,0.00,WUHU216HW,2013-01-19 14:23:00,
2013-01-19 08:28:00,39.2,30.6,30.00,SW,225,8.5,9.8,71,0.00,,,0.00,WUHU216HW,2013-01-19 14:28:00,
2013-01-19 08:33:00,39.8,30.8,30.00,SSW,203,3.8,9.8,70,0.00,,,0.00,WUHU216HW,2013-01-19 14:33:00,
2013-01-19 08:38:00,40.3,31.0,30.00,SW,225,6.5,9.8,69,0.00,,,0.00,WUHU216HW,2013-01-19 14:38:00,
2013-01-19 08:43:00,40.9,31.2,30.00,SSW,203,8.5,8.5,68,0.00,,,0.00,WUHU216HW,2013-01-19 14:43:00,
2013-01-19 08:48:00,41.2,31.1,30.00,SSW,203,4.0,12.1,67,0.00,,,0.00,WUHU216HW,2013-01-19 14:48:00,
2013-01-19 08:53:00,41.4,31.2,30.00,SW,225,8.5,12.1,67,0.00,,,0.00,WUHU216HW,2013-01-19 14:53:00,
2013-01-19 08:58:00,41.4,31.2,29.99,WSW,248,9.2,11.9,67,0.00,,,0.00,WUHU216HW,2013-01-19 14:58:00,
2013-01-19 09:03:00,41.8,31.6,29.99,SW,225,8.9,11.9,67,0.00,,,0.00,WUHU216HW,2013-01-19 15:03:00,
2013-01-19 09:08:00,42.1,32.0,30.00,SW,225,4.7,13.2,67,0.00,,,0.00,WUHU216HW,2013-01-19 15:08:00,
2013-01-19 09:13:00,42.8,32.2,30.01,SW,225,7.4,13.2,66,0.00,,,0.00,WUHU216HW,2013-01-19 15:13:00,
2013-01-19 09:18:00,43.2,32.2,30.01,WSW,248,6.3,11.6,65,0.00,,,0.00,WUHU216HW,2013-01-19 15:18:00,
2013-01-19 09:23:00,43.2,32.2,30.01,South,180,3.4,11.6,65,0.00,,,0.00,WUHU216HW,2013-01-19 15:23:00,
2013-01-19 09:28:00,43.9,32.5,30.01,SW,225,9.8,9.8,64,0.00,,,0.00,WUHU216HW,2013-01-19 15:28:00,
2013-01-19 09:33:00,44.8,32.6,30.01,SSW,203,7.6,9.8,62,0.00,,,0.00,WUHU216HW,2013-01-19 15:33:00,
2013-01-19 09:38:00,45.0,32.4,30.02,SW,225,6.3,12.1,61,0.00,,,0.00,WUHU216HW,2013-01-19 15:38:00,
2013-01-19 09:43:00,45.5,32.5,30.03,West,270,6.3,12.8,60,0.00,,,0.00,WUHU216HW,2013-01-19 15:43:00,
2013-01-19 09:48:00,45.7,32.7,30.03,SW,225,13.4,14.3,60,0.00,,,0.00,WUHU216HW,2013-01-19 15:48:00,
2013-01-19 09:53:00,46.1,32.5,30.03,WSW,248,10.1,14.3,59,0.00,,,0.00,WUHU216HW,2013-01-19 15:53:00,
2013-01-19 09:58:00,47.0,33.0,30.04,WSW,248,9.8,13.4,58,0.00,,,0.00,WUHU216HW,2013-01-19 15:58:00,
2013-01-19 10:03:00,47.5,33.5,30.05,West,270,6.9,11.9,58,0.00,,,0.00,WUHU216HW,2013-01-19 16:03:00,
2013-01-19 10:08:00,47.9,32.9,30.04,SW,225,10.5,11.6,56,0.00,,,0.00,WUHU216HW,2013-01-19 16:08:00,
2013-01-19 10:13:00,48.8,33.3,30.04,West,270,7.6,11.2,55,0.00,,,0.00,WUHU216HW,2013-01-19 16:13:00,
2013-01-19 10:18:00,49.5,33.0,30.04,West,270,9.8,12.5,53,0.00,,,0.00,WUHU216HW,2013-01-19 16:18:00,
2013-01-19 10:23:00,50.0,32.7,30.05,West,270,11.2,12.5,51,0.00,,,0.00,WUHU216HW,2013-01-19 16:23:00,
2013-01-19 10:28:00,50.9,33.0,30.05,WNW,293,6.0,12.3,50,0.00,,,0.00,WUHU216HW,2013-01-19 16:28:00,
2013-01-19 10:33:00,51.8,33.3,30.05,WSW,248,6.7,12.1,49,0.00,,,0.00,WUHU216HW,2013-01-19 16:33:00,
2013-01-19 10:38:00,52.0,32.3,30.04,SW,225,8.9,11.2,47,0.00,,,0.00,WUHU216HW,2013-01-19 16:38:00,
2013-01-19 10:43:00,51.5,31.9,30.05,West,270,9.8,11.2,47,0.00,,,0.00,WUHU216HW,2013-01-19 16:43:00,
2013-01-19 10:48:00,51.3,31.7,30.05,NW,315,6.5,12.1,47,0.00,,,0.00,WUHU216HW,2013-01-19 16:48:00,
2013-01-19 10:54:00,50.6,31.6,30.06,West,270,9.4,12.1,48,0.00,,,0.00,WUHU216HW,2013-01-19 16:54:00,
2013-01-19 10:58:00,50.8,32.3,30.05,WNW,293,5.6,11.0,49,0.00,,,0.00,WUHU216HW,2013-01-19 16:58:00,
2013-01-19 11:03:00,51.1,32.0,30.05,WNW,293,9.2,12.1,48,0.00,,,0.00,WUHU216HW,2013-01-19 17:03:00,
2013-01-19 11:09:00,52.4,32.7,30.05,West,270,14.5,14.5,47,0.00,,,0.00,WUHU216HW,2013-01-19 17:09:00,
2013-01-19 11:14:00,52.7,32.4,30.05,West,270,9.4,14.5,46,0.00,,,0.00,WUHU216HW,2013-01-19 17:14:00,
2013-01-19 11:19:00,52.9,32.6,30.05,West,270,9.8,10.5,46,0.00,,,0.00,WUHU216HW,2013-01-19 17:19:00,
2013-01-19 11:24:00,52.9,32.6,30.05,West,270,9.4,10.3,46,0.00,,,0.00,WUHU216HW,2013-01-19 17:24:00,
2013-01-19 11:29:00,53.3,32.3,30.05,West,270,8.7,11.0,45,0.00,,,0.00,WUHU216HW,2013-01-19 17:29:00,
2013-01-19 11:34:00,54.0,33.0,30.05,West,270,7.4,11.4,45,0.00,,,0.00,WUHU216HW,2013-01-19 17:34:00,
2013-01-19 11:39:00,54.7,33.1,30.05,WNW,293,9.6,11.4,44,0.00,,,0.00,WUHU216HW,2013-01-19 17:39:00,
2013-01-19 11:44:00,54.9,32.7,30.04,WNW,293,10.1,11.9,43,0.00,,,0.00,WUHU216HW,2013-01-19 17:44:00,
2013-01-19 11:49:00,56.2,32.7,30.04,WNW,293,8.5,11.9,41,0.00,,,0.00,WUHU216HW,2013-01-19 17:49:00,
2013-01-19 11:54:00,56.7,32.7,30.04,WNW,293,6.9,11.2,40,0.00,,,0.00,WUHU216HW,2013-01-19 17:54:00,
2013-01-19 11:59:00,57.2,32.4,30.04,WNW,293,6.0,8.5,39,0.00,,,0.00,WUHU216HW,2013-01-19 17:59:00,
2013-01-19 12:04:00,58.0,31.7,30.03,WNW,293,6.9,11.4,37,0.00,,,0.00,WUHU216HW,2013-01-19 18:04:00,
2013-01-19 12:09:00,58.7,33.0,30.03,WNW,293,9.2,11.4,38,0.00,,,0.00,WUHU216HW,2013-01-19 18:09:00,
2013-01-19 12:14:00,58.9,31.8,30.03,WNW,293,4.7,12.8,36,0.00,,,0.00,WUHU216HW,2013-01-19 18:14:00,
2013-01-19 12:20:00,59.4,30.9,30.02,West,270,6.9,12.8,34,0.00,,,0.00,WUHU216HW,2013-01-19 18:20:00,
2013-01-19 12:25:00,59.9,32.0,30.02,West,270,7.8,11.0,35,0.00,,,0.00,WUHU216HW,2013-01-19 18:25:00,
2013-01-19 12:30:00,59.9,30.6,30.02,WNW,293,8.5,11.9,33,0.00,,,0.00,WUHU216HW,2013-01-19 18:30:00,
2013-01-19 12:35:00,59.8,31.2,30.02,West,270,7.6,11.9,34,0.00,,,0.00,WUHU216HW,2013-01-19 18:35:00,
2013-01-19 12:40:00,60.1,31.4,30.02,NW,315,10.7,11.4,34,0.00,,,0.00,WUHU216HW,2013-01-19 18:40:00,
2013-01-19 12:45:00,60.3,30.9,30.02,WNW,293,8.1,12.8,33,0.00,,,0.00,WUHU216HW,2013-01-19 18:45:00,
2013-01-19 12:50:00,60.5,31.1,30.01,West,270,8.7,12.8,33,0.00,,,0.00,WUHU216HW,2013-01-19 18:50:00,
2013-01-19 12:55:00,60.8,30.6,30.02,West,270,9.6,11.9,32,0.00,,,0.00,WUHU216HW,2013-01-19 18:55:00,
2013-01-19 13:01:00,60.8,30.6,30.01,WNW,293,9.2,11.2,32,0.00,,,0.00,WUHU216HW,2013-01-19 19:01:00,
2013-01-19 13:06:00,61.0,30.1,30.01,WNW,293,8.9,12.5,31,0.00,,,0.00,WUHU216HW,2013-01-19 19:06:00,
2013-01-19 13:11:00,61.0,30.1,30.01,WNW,293,9.4,12.5,31,0.00,,,0.00,WUHU216HW,2013-01-19 19:11:00,
2013-01-19 13:16:00,60.8,29.9,30.01,NW,315,11.0,11.6,31,0.00,,,0.00,WUHU216HW,2013-01-19 19:16:00,
2013-01-19 13:21:00,60.1,30.0,30.01,West,270,8.5,11.9,32,0.00,,,0.00,WUHU216HW,2013-01-19 19:21:00,
2013-01-19 13:27:00,60.3,30.2,30.01,WNW,293,10.3,11.9,32,0.00,,,0.00,WUHU216HW,2013-01-19 19:27:00,
2013-01-19 13:32:00,60.1,30.0,30.01,NNW,338,11.0,12.3,32,0.00,,,0.00,WUHU216HW,2013-01-19 19:32:00,
2013-01-19 13:37:00,60.1,30.0,30.01,NW,315,10.5,12.3,32,0.00,,,0.00,WUHU216HW,2013-01-19 19:37:00,
2013-01-19 13:42:00,59.9,29.9,30.02,West,270,7.6,11.4,32,0.00,,,0.00,WUHU216HW,2013-01-19 19:42:00,
2013-01-19 13:47:00,60.1,30.0,30.02,NW,315,7.8,12.3,32,0.00,,,0.00,WUHU216HW,2013-01-19 19:47:00,
2013-01-19 13:53:00,59.9,29.9,30.02,NW,315,11.6,12.3,32,0.00,,,0.00,WUHU216HW,2013-01-19 19:53:00,
2013-01-19 13:58:00,59.9,29.9,30.02,West,270,9.8,11.6,32,0.00,,,0.00,WUHU216HW,2013-01-19 19:58:00,
2013-01-19 14:03:00,60.1,30.0,30.02,NW,315,8.5,12.1,32,0.00,,,0.00,WUHU216HW,2013-01-19 20:03:00,
2013-01-19 14:08:00,60.8,30.6,30.02,WNW,293,4.9,12.1,32,0.00,,,0.00,WUHU216HW,2013-01-19 20:08:00,
2013-01-19 14:13:00,61.4,29.6,30.02,WNW,293,11.9,11.9,30,0.00,,,0.00,WUHU216HW,2013-01-19 20:13:00,
2013-01-19 14:19:00,61.6,29.8,30.02,WNW,293,9.8,13.0,30,0.00,,,0.00,WUHU216HW,2013-01-19 20:19:00,
2013-01-19 14:24:00,62.6,30.8,30.02,NW,315,8.5,13.4,30,0.00,,,0.00,WUHU216HW,2013-01-19 20:24:00,
2013-01-19 14:29:00,63.4,30.4,30.02,WNW,293,11.4,13.4,29,0.00,,,0.00,WUHU216HW,2013-01-19 20:29:00,
2013-01-19 14:34:00,63.0,30.2,30.02,West,270,6.9,11.4,29,0.00,,,0.00,WUHU216HW,2013-01-19 20:34:00,
2013-01-19 14:39:00,63.4,31.4,30.02,NNW,338,6.0,12.1,30,0.00,,,0.00,WUHU216HW,2013-01-19 20:39:00,
2013-01-19 14:44:00,63.7,30.8,30.02,WNW,293,8.5,12.1,29,0.00,,,0.00,WUHU216HW,2013-01-19 20:44:00,
2013-01-19 14:49:00,63.5,30.6,30.02,NW,315,8.5,14.5,29,0.00,,,0.00,WUHU216HW,2013-01-19 20:49:00,
2013-01-19 14:54:00,63.2,28.4,30.02,NW,315,12.5,19.2,27,0.00,,,0.00,WUHU216HW,2013-01-19 20:54:00,
2013-01-19 14:59:00,62.8,29.0,30.02,NW,315,15.7,19.2,28,0.00,,,0.00,WUHU216HW,2013-01-19 20:59:00,
2013-01-19 15:04:00,63.2,29.4,30.03,WNW,293,9.8,18.3,28,0.00,,,0.00,WUHU216HW,2013-01-19 21:04:00,
2013-01-19 15:09:00,63.9,29.0,30.03,NW,315,11.4,15.7,27,0.00,,,0.00,WUHU216HW,2013-01-19 21:09:00,
2013-01-19 15:15:00,64.1,30.1,30.03,NW,315,10.7,12.8,28,0.00,,,0.00,WUHU216HW,2013-01-19 21:15:00,
2013-01-19 15:20:00,64.6,30.6,30.03,NW,315,13.9,13.9,28,0.00,,,0.00,WUHU216HW,2013-01-19 21:20:00,
2013-01-19 15:25:00,64.6,30.6,30.03,NW,315,11.0,13.9,28,0.00,,,0.00,WUHU216HW,2013-01-19 21:25:00,
2013-01-19 15:30:00,65.3,31.2,30.04,NW,315,12.1,13.9,28,0.00,,,0.00,WUHU216HW,2013-01-19 21:30:00,
2013-01-19 15:35:00,65.3,31.2,30.04,WNW,293,12.8,12.8,28,0.00,,,0.00,WUHU216HW,2013-01-19 21:35:00,
2013-01-19 15:41:00,65.5,29.3,30.04,NNW,338,17.9,17.9,26,0.00,,,0.00,WUHU216HW,2013-01-19 21:41:00,
2013-01-19 15:46:00,64.8,28.7,30.04,WNW,293,13.4,17.9,26,0.00,,,0.00,WUHU216HW,2013-01-19 21:46:00,
2013-01-19 15:51:00,64.4,30.4,30.05,NW,315,9.2,17.0,28,0.00,,,0.00,WUHU216HW,2013-01-19 21:51:00,
2013-01-19 15:56:00,64.3,30.2,30.05,WNW,293,12.1,16.3,28,0.00,,,0.00,WUHU216HW,2013-01-19 21:56:00,
2013-01-19 16:01:00,63.9,29.0,30.05,NW,315,11.9,16.3,27,0.00,,,0.00,WUHU216HW,2013-01-19 22:01:00,
2013-01-19 16:07:00,63.7,29.8,30.05,WNW,293,8.5,16.3,28,0.00,,,0.00,WUHU216HW,2013-01-19 22:07:00,
2013-01-19 16:12:00,64.3,31.2,30.06,WNW,293,6.5,14.1,29,0.00,,,0.00,WUHU216HW,2013-01-19 22:12:00,
2013-01-19 16:17:00,64.3,31.2,30.07,NW,315,9.2,12.1,29,0.00,,,0.00,WUHU216HW,2013-01-19 22:17:00,
2013-01-19 16:22:00,64.3,31.2,30.07,NW,315,7.6,11.2,29,0.00,,,0.00,WUHU216HW,2013-01-19 22:22:00,
2013-01-19 16:27:00,63.9,30.0,30.08,NW,315,9.8,11.2,28,0.00,,,0.00,WUHU216HW,2013-01-19 22:27:00,
2013-01-19 16:32:00,63.2,30.3,30.08,WNW,293,9.6,11.2,29,0.00,,,0.00,WUHU216HW,2013-01-19 22:32:00,
2013-01-19 16:37:00,62.8,30.0,30.08,NNW,338,9.2,11.0,29,0.00,,,0.00,WUHU216HW,2013-01-19 22:37:00,
2013-01-19 16:43:00,62.3,30.4,30.08,NW,315,8.3,12.1,30,0.00,,,0.00,WUHU216HW,2013-01-19 22:43:00,
2013-01-19 16:48:00,60.1,30.0,30.08,NW,315,10.1,12.1,32,0.00,,,0.00,WUHU216HW,2013-01-19 22:48:00,
2013-01-19 16:53:00,59.0,29.8,30.08,NW,315,10.7,11.4,33,0.00,,,0.00,WUHU216HW,2013-01-19 22:53:00,
2013-01-19 16:58:00,58.1,29.0,30.08,WNW,293,6.0,11.4,33,0.00,,,0.00,WUHU216HW,2013-01-19 22:58:00,
2013-01-19 17:03:00,56.9,30.0,30.08,NNW,338,8.5,10.7,36,0.00,,,0.00,WUHU216HW,2013-01-19 23:03:00,
2013-01-19 17:08:00,56.3,29.5,30.09,NNW,338,7.2,10.1,36,0.00,,,0.00,WUHU216HW,2013-01-19 23:08:00,
2013-01-19 17:13:00,55.8,29.7,30.09,NW,315,6.9,11.4,37,0.00,,,0.00,WUHU216HW,2013-01-19 23:13:00,
2013-01-19 17:18:00,55.3,29.3,30.10,NW,315,6.0,11.4,37,0.00,,,0.00,WUHU216HW,2013-01-19 23:18:00,
2013-01-19 17:23:00,54.4,29.2,30.10,NW,315,6.9,8.7,38,0.00,,,0.00,WUHU216HW,2013-01-19 23:23:00,
2013-01-19 17:29:00,53.8,28.7,30.10,NW,315,8.7,8.7,38,0.00,,,0.00,WUHU216HW,2013-01-19 23:29:00,
2013-01-19 17:34:00,53.1,28.7,30.11,NW,315,5.1,8.7,39,0.00,,,0.00,WUHU216HW,2013-01-19 23:34:00,
2013-01-19 17:39:00,52.4,28.7,30.11,NW,315,7.8,9.2,40,0.00,,,0.00,WUHU216HW,2013-01-19 23:39:00,
2013-01-19 17:44:00,52.2,28.6,30.11,NW,315,6.9,9.2,40,0.00,,,0.00,WUHU216HW,2013-01-19 23:44:00,
2013-01-19 17:49:00,51.5,28.5,30.12,NW,315,6.7,8.3,41,0.00,,,0.00,WUHU216HW,2013-01-19 23:49:00,
2013-01-19 17:54:00,51.1,28.7,30.13,WNW,293,4.0,8.3,42,0.00,,,0.00,WUHU216HW,2013-01-19 23:54:00,
2013-01-19 17:59:00,50.6,28.3,30.13,NW,315,3.8,6.9,42,0.00,,,0.00,WUHU216HW,2013-01-19 23:59:00,
2013-01-19 18:05:00,50.2,27.9,30.13,WNW,293,4.5,6.0,42,0.00,,,0.00,WUHU216HW,2013-01-20 00:05:00,
2013-01-19 18:10:00,49.9,28.2,30.13,West,270,4.7,5.1,43,0.00,,,0.00,WUHU216HW,2013-01-20 00:10:00,
2013-01-19 18:15:00,49.3,28.7,30.14,NW,315,7.2,7.2,45,0.00,,,0.00,WUHU216HW,2013-01-20 00:15:00,
2013-01-19 18:20:00,49.3,28.2,30.14,NW,315,6.0,7.2,44,0.00,,,0.00,WUHU216HW,2013-01-20 00:20:00,
2013-01-19 18:25:00,49.1,28.6,30.14,NW,315,5.4,7.2,45,0.00,,,0.00,WUHU216HW,2013-01-20 00:25:00,
2013-01-19 18:30:00,48.6,28.1,30.15,NNW,338,6.3,6.3,45,0.00,,,0.00,WUHU216HW,2013-01-20 00:30:00,
2013-01-19 18:35:00,48.2,28.3,30.15,WNW,293,5.4,6.3,46,0.00,,,0.00,WUHU216HW,2013-01-20 00:35:00,
2013-01-19 18:40:00,47.9,28.4,30.16,NNW,338,4.3,6.3,47,0.00,,,0.00,WUHU216HW,2013-01-20 00:40:00,
2013-01-19 18:45:00,47.7,28.4,30.16,NNW,338,4.3,5.4,47,0.00,,,0.00,WUHU216HW,2013-01-20 00:45:00,
2013-01-19 18:50:00,47.7,28.9,30.16,WNW,293,4.7,6.0,48,0.00,,,0.00,WUHU216HW,2013-01-20 00:50:00,
2013-01-19 18:56:00,47.2,28.4,30.17,NNW,338,3.4,6.0,48,0.00,,,0.00,WUHU216HW,2013-01-20 00:56:00,
2013-01-19 19:01:00,47.2,28.4,30.17,NW,315,4.7,5.1,48,0.00,,,0.00,WUHU216HW,2013-01-20 01:01:00,
2013-01-19 19:07:00,47.2,28.9,30.17,NNW,338,5.4,6.5,49,0.00,,,0.00,WUHU216HW,2013-01-20 01:07:00,
2013-01-19 19:12:00,47.2,28.9,30.18,NNW,338,5.8,7.2,49,0.00,,,0.00,WUHU216HW,2013-01-20 01:12:00,
2013-01-19 19:17:00,47.0,28.7,30.18,NNW,338,4.0,7.2,49,0.00,,,0.00,WUHU216HW,2013-01-20 01:17:00,
2013-01-19 19:22:00,46.8,29.2,30.18,NW,315,7.4,7.4,50,0.00,,,0.00,WUHU216HW,2013-01-20 01:22:00,
2013-01-19 19:27:00,47.0,29.3,30.18,North,0,5.4,7.4,50,0.00,,,0.00,WUHU216HW,2013-01-20 01:27:00,
2013-01-19 19:32:00,46.8,29.2,30.19,NW,315,4.0,5.4,50,0.00,,,0.00,WUHU216HW,2013-01-20 01:32:00,
2013-01-19 19:38:00,46.6,29.0,30.19,NW,315,4.7,4.9,50,0.00,,,0.00,WUHU216HW,2013-01-20 01:38:00,
2013-01-19 19:43:00,46.4,29.3,30.20,NNW,338,5.4,5.8,51,0.00,,,0.00,WUHU216HW,2013-01-20 01:43:00,
2013-01-19 19:48:00,46.4,29.3,30.20,NW,315,3.4,5.8,51,0.00,,,0.00,WUHU216HW,2013-01-20 01:48:00,
2013-01-19 19:53:00,46.4,28.8,30.20,NNW,338,2.5,5.4,50,0.00,,,0.00,WUHU216HW,2013-01-20 01:53:00,
2013-01-19 19:58:00,46.1,28.9,30.20,North,0,3.8,3.8,51,0.00,,,0.00,WUHU216HW,2013-01-20 01:58:00,
2013-01-19 20:03:00,45.9,28.8,30.20,North,0,2.2,3.8,51,0.00,,,0.00,WUHU216HW,2013-01-20 02:03:00,
2013-01-19 20:08:00,45.9,28.8,30.21,NNW,338,4.0,4.0,51,0.00,,,0.00,WUHU216HW,2013-01-20 02:08:00,
2013-01-19 20:13:00,45.4,28.7,30.21,NW,315,3.8,7.4,52,0.00,,,0.00,WUHU216HW,2013-01-20 02:13:00,
2013-01-19 20:18:00,45.0,28.5,30.21,NNW,338,3.8,7.4,52,0.00,,,0.00,WUHU216HW,2013-01-20 02:18:00,
2013-01-19 20:23:00,45.0,28.9,30.21,NNW,338,3.4,6.5,53,0.00,,,0.00,WUHU216HW,2013-01-20 02:23:00,
2013-01-19 20:28:00,44.8,28.7,30.21,NNW,338,4.5,7.8,53,0.00,,,0.00,WUHU216HW,2013-01-20 02:28:00,
2013-01-19 20:33:00,44.6,29.0,30.22,NW,315,4.3,7.8,54,0.00,,,0.00,WUHU216HW,2013-01-20 02:33:00,
2013-01-19 20:38:00,44.3,29.1,30.22,WNW,293,5.4,7.2,55,0.00,,,0.00,WUHU216HW,2013-01-20 02:38:00,
2013-01-19 20:43:00,44.3,29.1,30.23,NNW,338,5.6,7.2,55,0.00,,,0.00,WUHU216HW,2013-01-20 02:43:00,
2013-01-19 20:48:00,43.7,28.6,30.23,NNW,338,3.4,6.5,55,0.00,,,0.00,WUHU216HW,2013-01-20 02:48:00,
2013-01-19 20:53:00,43.6,28.5,30.23,NNW,338,4.5,6.5,55,0.00,,,0.00,WUHU216HW,2013-01-20 02:53:00,
2013-01-19 20:58:00,43.6,28.8,30.23,NW,315,4.5,6.3,56,0.00,,,0.00,WUHU216HW,2013-01-20 02:58:00,
2013-01-19 21:04:00,43.4,29.1,30.23,NNW,338,4.3,7.2,57,0.00,,,0.00,WUHU216HW,2013-01-20 03:04:00,
2013-01-19 21:09:00,43.2,28.9,30.23,WNW,293,4.7,7.4,57,0.00,,,0.00,WUHU216HW,2013-01-20 03:09:00,
2013-01-19 21:14:00,43.2,29.3,30.23,NNW,338,5.6,7.6,58,0.00,,,0.00,WUHU216HW,2013-01-20 03:14:00,
2013-01-19 21:19:00,43.2,28.9,30.23,NW,315,4.5,7.6,57,0.00,,,0.00,WUHU216HW,2013-01-20 03:19:00,
2013-01-19 21:24:00,42.8,29.0,30.23,NNW,338,7.2,7.6,58,0.00,,,0.00,WUHU216HW,2013-01-20 03:24:00,
2013-01-19 21:29:00,42.8,29.4,30.23,NNW,338,6.9,9.2,59,0.00,,,0.00,WUHU216HW,2013-01-20 03:29:00,
2013-01-19 21:34:00,42.8,29.4,30.24,North,0,6.7,9.2,59,0.00,,,0.00,WUHU216HW,2013-01-20 03:34:00,
2013-01-19 21:40:00,42.8,29.4,30.24,North,0,7.6,9.2,59,0.00,,,0.00,WUHU216HW,2013-01-20 03:40:00,
2013-01-19 21:45:00,42.8,29.4,30.24,NW,315,5.8,9.2,59,0.00,,,0.00,WUHU216HW,2013-01-20 03:45:00,
2013-01-19 21:50:00,42.7,29.3,30.25,NNW,338,6.3,10.1,59,0.00,,,0.00,WUHU216HW,2013-01-20 03:50:00,
2013-01-19 21:55:00,42.5,29.2,30.25,North,0,6.3,10.1,59,0.00,,,0.00,WUHU216HW,2013-01-20 03:55:00,
2013-01-19 22:00:00,42.5,28.7,30.25,North,0,6.3,7.4,58,0.00,,,0.00,WUHU216HW,2013-01-20 04:00:00,
2013-01-19 22:05:00,42.3,29.0,30.25,NNW,338,5.1,6.9,59,0.00,,,0.00,WUHU216HW,2013-01-20 04:05:00,
2013-01-19 22:10:00,42.1,28.8,30.25,NNW,338,3.1,6.3,59,0.00,,,0.00,WUHU216HW,2013-01-20 04:10:00,
2013-01-19 22:15:00,41.8,28.4,30.25,ENE,68,3.4,6.3,59,0.00,,,0.00,WUHU216HW,2013-01-20 04:15:00,
2013-01-19 22:20:00,41.6,28.3,30.26,WNW,293,2.9,5.4,59,0.00,,,0.00,WUHU216HW,2013-01-20 04:20:00,
2013-01-19 22:25:00,41.4,28.2,30.26,NNW,338,2.5,5.1,59,0.00,,,0.00,WUHU216HW,2013-01-20 04:25:00,
2013-01-19 22:30:00,41.0,28.3,30.26,North,0,4.3,5.4,60,0.00,,,0.00,WUHU216HW,2013-01-20 04:30:00,
2013-01-19 22:35:00,40.9,28.4,30.26,NW,315,4.9,5.4,61,0.00,,,0.00,WUHU216HW,2013-01-20 04:35:00,
2013-01-19 22:40:00,40.7,28.3,30.26,NW,315,4.3,5.6,61,0.00,,,0.00,WUHU216HW,2013-01-20 04:40:00,
2013-01-19 22:45:00,40.5,28.4,30.26,NNW,338,5.6,6.9,62,0.00,,,0.00,WUHU216HW,2013-01-20 04:45:00,
2013-01-19 22:50:00,40.3,28.7,30.26,NNW,338,7.6,7.6,63,0.00,,,0.00,WUHU216HW,2013-01-20 04:50:00,
2013-01-19 22:55:00,40.0,28.4,30.27,NW,315,6.3,7.6,63,0.00,,,0.00,WUHU216HW,2013-01-20 04:55:00,
2013-01-19 23:00:00,40.0,28.4,30.27,NNW,338,6.3,7.6,63,0.00,,,0.00,WUHU216HW,2013-01-20 05:00:00,
2013-01-19 23:01:00,39.8,28.2,30.27,NNW,338,4.7,7.2,63,0.00,,,0.00,WUHU216HW,2013-01-20 05:01:00,
2013-01-19 23:03:00,39.8,28.2,30.27,NW,315,5.4,6.9,63,0.00,,,0.00,WUHU216HW,2013-01-20 05:03:00,
2013-01-19 23:08:00,39.4,28.2,30.28,NW,315,4.5,7.2,64,0.00,,,0.00,WUHU216HW,2013-01-20 05:08:00,
2013-01-19 23:13:00,39.2,28.4,30.28,North,0,6.0,7.2,65,0.00,,,0.00,WUHU216HW,2013-01-20 05:13:00,
2013-01-19 23:18:00,39.1,28.2,30.28,NNW,338,3.8,7.2,65,0.00,,,0.00,WUHU216HW,2013-01-20 05:18:00,
2013-01-19 23:23:00,38.9,28.0,30.28,North,0,5.6,9.4,65,0.00,,,0.00,WUHU216HW,2013-01-20 05:23:00,
2013-01-19 23:28:00,38.5,27.4,30.28,North,0,6.3,9.8,64,0.00,,,0.00,WUHU216HW,2013-01-20 05:28:00,
2013-01-19 23:33:00,38.3,26.8,30.29,North,0,3.4,9.8,63,0.00,,,0.00,WUHU216HW,2013-01-20 05:33:00,
2013-01-19 23:38:00,38.2,25.8,30.29,NNW,338,4.7,6.7,61,0.00,,,0.00,WUHU216HW,2013-01-20 05:38:00,
2013-01-19 23:43:00,37.8,24.8,30.29,NNW,338,3.6,8.5,59,0.00,,,0.00,WUHU216HW,2013-01-20 05:43:00,
2013-01-19 23:48:00,37.8,24.8,30.30,NNW,338,4.9,8.9,59,0.00,,,0.00,WUHU216HW,2013-01-20 05:48:00,
2013-01-19 23:53:00,37.4,24.4,30.30,North,0,6.9,8.9,59,0.00,,,0.00,WUHU216HW,2013-01-20 05:53:00,
2013-01-19 23:58:00,37.3,24.2,30.30,NNW,338,5.6,7.2,59,0.00,,,0.00,WUHU216HW,2013-01-20 05:58:00,